VTD056 UWKD-UWLL

Flight info

Callsign VTD056
Flight time 0h 47m
Altitude 8000
Route SONUM1J SONUM T789 AGUTO AGUTO1F
Aircraft DA42/L-SBDGRY/S

Departure

Time 2026-04-25 10:17
Airport Kazan International Airport (UWKD)

Arrival

Time 2026-04-25 11:05
Airport Ulyanovsk Baratayevka Airport (UWLL)
Time Latitude Longitude Altitude Speed Heading
2026-04-25 10:06 55.60682 49.29435 410 ft 0 kts 34°
2026-04-25 10:08 55.60681 49.29435 382 ft 0 kts 34°
2026-04-25 10:13 55.60681 49.29434 410 ft 0 kts 34°
2026-04-25 10:13 55.60691 49.29446 410 ft 5 kts 31°
2026-04-25 10:13 55.60717 49.29415 410 ft 6 kts 299°
2026-04-25 10:14 55.60739 49.29348 410 ft 6 kts 243°
2026-04-25 10:14 55.60709 49.29300 410 ft 8 kts 218°
2026-04-25 10:14 55.60616 49.29181 410 ft 24 kts 220°
2026-04-25 10:14 55.60578 49.28986 410 ft 18 kts 274°
2026-04-25 10:15 55.60571 49.28793 410 ft 14 kts 221°
2026-04-25 10:15 55.60502 49.28711 410 ft 12 kts 216°
2026-04-25 10:15 55.60459 49.28662 411 ft 0 kts 202°
2026-04-25 10:15 55.60457 49.28661 411 ft 0 kts 205°
2026-04-25 10:16 55.60451 49.28653 411 ft 5 kts 219°
2026-04-25 10:16 55.60391 49.28575 412 ft 16 kts 223°
2026-04-25 10:16 55.60398 49.28457 412 ft 0 kts 306°
2026-04-25 10:17 55.60415 49.28414 412 ft 26 kts 304°
2026-04-25 10:17 55.60630 49.27883 577 ft 56 kts 301°
2026-04-25 10:17 55.60883 49.27220 755 ft 79 kts 298°
2026-04-25 10:17 55.61187 49.26485 1200 ft 72 kts 303°
2026-04-25 10:18 55.61544 49.25838 1583 ft 77 kts 309°
2026-04-25 10:18 55.62011 49.25177 1682 ft 104 kts 317°
2026-04-25 10:18 55.62575 49.24442 2021 ft 97 kts 316°
2026-04-25 10:18 55.63121 49.23784 2376 ft 94 kts 317°
2026-04-25 10:19 55.63660 49.23091 2632 ft 98 kts 314°
2026-04-25 10:19 55.64239 49.22210 2504 ft 122 kts 305°
2026-04-25 10:19 55.64564 49.21072 3004 ft 91 kts 279°
2026-04-25 10:19 55.64590 49.19886 3151 ft 103 kts 264°
2026-04-25 10:20 55.64580 49.18601 3256 ft 106 kts 279°
2026-04-25 10:20 55.64821 49.17361 3390 ft 108 kts 297°
2026-04-25 10:20 55.65208 49.16208 3548 ft 109 kts 297°
2026-04-25 10:20 55.65534 49.15011 3768 ft 109 kts 277°
2026-04-25 10:21 55.65428 49.13685 4037 ft 114 kts 256°
2026-04-25 10:21 55.64940 49.12504 4326 ft 126 kts 228°
2026-04-25 10:21 55.64086 49.11866 4495 ft 143 kts 203°
2026-04-25 10:21 55.63092 49.11483 4490 ft 150 kts 202°
2026-04-25 10:22 55.62075 49.11053 4489 ft 147 kts 203°
2026-04-25 10:22 55.61091 49.10627 4488 ft 144 kts 203°
2026-04-25 10:22 55.60124 49.10213 4495 ft 144 kts 202°
2026-04-25 10:22 55.59147 49.09792 4588 ft 140 kts 203°
2026-04-25 10:23 55.58244 49.09411 4873 ft 130 kts 204°
2026-04-25 10:23 55.57380 49.09038 5153 ft 125 kts 204°
2026-04-25 10:23 55.56550 49.08680 5434 ft 119 kts 205°
2026-04-25 10:23 55.55761 49.08338 5720 ft 114 kts 205°
2026-04-25 10:24 55.54998 49.08008 6003 ft 112 kts 205°
2026-04-25 10:24 55.54252 49.07684 6273 ft 111 kts 205°
2026-04-25 10:24 55.53506 49.07361 6549 ft 110 kts 205°
2026-04-25 10:24 55.52756 49.07036 6833 ft 111 kts 205°
2026-04-25 10:25 55.51993 49.06704 7115 ft 113 kts 205°
2026-04-25 10:25 55.51234 49.06380 7394 ft 112 kts 204°
2026-04-25 10:25 55.50446 49.06034 7498 ft 125 kts 204°
2026-04-25 10:25 55.49561 49.05649 7507 ft 135 kts 202°
2026-04-25 10:26 55.48626 49.05247 7513 ft 140 kts 202°
2026-04-25 10:26 55.47667 49.04839 7517 ft 142 kts 202°
2026-04-25 10:26 55.46710 49.04431 7517 ft 144 kts 202°
2026-04-25 10:26 55.45736 49.04014 7516 ft 144 kts 202°
2026-04-25 10:27 55.44756 49.03594 7515 ft 145 kts 202°
2026-04-25 10:27 55.43774 49.03174 7508 ft 144 kts 202°
2026-04-25 10:27 55.42808 49.02761 7507 ft 144 kts 202°
2026-04-25 10:27 55.41834 49.02342 7504 ft 143 kts 202°
2026-04-25 10:28 55.40866 49.01929 7509 ft 142 kts 202°
2026-04-25 10:28 55.39904 49.01514 7512 ft 142 kts 202°
2026-04-25 10:28 55.38935 49.01102 7514 ft 144 kts 202°
2026-04-25 10:28 55.37965 49.00685 7516 ft 146 kts 202°
2026-04-25 10:29 55.36973 49.00262 7513 ft 147 kts 202°
2026-04-25 10:29 55.35990 48.99846 7515 ft 144 kts 202°
2026-04-25 10:29 55.35021 48.99440 7513 ft 142 kts 203°
2026-04-25 10:29 55.34059 48.99021 7514 ft 142 kts 203°
2026-04-25 10:30 55.33107 48.98608 7513 ft 143 kts 202°
2026-04-25 10:30 55.32464 48.98336 7513 ft 143 kts 202°
2026-04-25 10:30 55.31174 48.97789 7512 ft 143 kts 202°
2026-04-25 10:30 55.30205 48.97376 7512 ft 143 kts 202°
2026-04-25 10:31 55.29247 48.96968 7515 ft 143 kts 202°
2026-04-25 10:31 55.28279 48.96557 7514 ft 143 kts 201°
2026-04-25 10:31 55.27308 48.96143 7511 ft 143 kts 201°
2026-04-25 10:31 55.26338 48.95732 7511 ft 143 kts 201°
2026-04-25 10:32 55.25366 48.95320 7511 ft 143 kts 202°
2026-04-25 10:32 55.24396 48.94909 7512 ft 142 kts 202°
2026-04-25 10:32 55.23435 48.94497 7523 ft 142 kts 202°
2026-04-25 10:32 55.22485 48.94098 7543 ft 141 kts 203°
2026-04-25 10:33 55.21531 48.93693 7543 ft 141 kts 202°
2026-04-25 10:33 55.20571 48.93288 7542 ft 141 kts 203°
2026-04-25 10:33 55.19614 48.92880 7542 ft 142 kts 202°
2026-04-25 10:33 55.18650 48.92472 7541 ft 143 kts 202°
2026-04-25 10:34 55.17687 48.92063 7540 ft 144 kts 201°
2026-04-25 10:34 55.16707 48.91647 7540 ft 144 kts 202°
2026-04-25 10:34 55.15741 48.91243 7539 ft 143 kts 202°
2026-04-25 10:34 55.14777 48.90836 7538 ft 142 kts 203°
2026-04-25 10:35 55.14171 48.90579 7538 ft 142 kts 203°
2026-04-25 10:35 55.13210 48.90172 7538 ft 142 kts 203°
2026-04-25 10:35 55.12257 48.89771 7538 ft 142 kts 202°
2026-04-25 10:35 55.11293 48.89365 7535 ft 142 kts 202°
2026-04-25 10:36 55.10328 48.88957 7535 ft 142 kts 202°
2026-04-25 10:36 55.09374 48.88555 7545 ft 142 kts 202°
2026-04-25 10:36 55.08412 48.88150 7545 ft 142 kts 203°
2026-04-25 10:36 55.07449 48.87744 7545 ft 142 kts 201°
2026-04-25 10:37 55.06480 48.87338 7546 ft 143 kts 202°
2026-04-25 10:37 55.05510 48.86930 7547 ft 143 kts 201°
2026-04-25 10:37 55.04547 48.86526 7547 ft 144 kts 202°
2026-04-25 10:37 55.03574 48.86117 7534 ft 144 kts 202°
2026-04-25 10:38 55.02602 48.85708 7535 ft 143 kts 202°
2026-04-25 10:38 55.01626 48.85297 7539 ft 144 kts 201°
2026-04-25 10:38 55.00654 48.84890 7541 ft 146 kts 201°
2026-04-25 10:38 54.99658 48.84473 7541 ft 147 kts 201°
2026-04-25 10:39 54.98655 48.84051 7543 ft 148 kts 201°
2026-04-25 10:39 54.97649 48.83631 7543 ft 148 kts 202°
2026-04-25 10:39 54.96644 48.83212 7556 ft 148 kts 202°
2026-04-25 10:39 54.95647 48.82796 7553 ft 147 kts 201°
2026-04-25 10:40 54.94673 48.82389 7546 ft 145 kts 201°
2026-04-25 10:40 54.93695 48.81981 7545 ft 144 kts 201°
2026-04-25 10:40 54.92720 48.81572 7545 ft 144 kts 201°
2026-04-25 10:40 54.92075 48.81303 7542 ft 144 kts 202°
2026-04-25 10:41 54.90775 48.80760 7542 ft 143 kts 202°
2026-04-25 10:41 54.89805 48.80355 7543 ft 143 kts 202°
2026-04-25 10:41 54.88845 48.79955 7542 ft 143 kts 201°
2026-04-25 10:41 54.87871 48.79548 7547 ft 144 kts 202°
2026-04-25 10:42 54.86891 48.79141 7565 ft 145 kts 201°
2026-04-25 10:42 54.85900 48.78726 7567 ft 147 kts 201°
2026-04-25 10:42 54.84905 48.78314 7557 ft 147 kts 202°
2026-04-25 10:42 54.83913 48.77899 7568 ft 146 kts 202°
2026-04-25 10:43 54.82923 48.77489 7594 ft 146 kts 202°
2026-04-25 10:43 54.82084 48.76651 7490 ft 140 kts 233°
2026-04-25 10:43 54.81426 48.75411 7393 ft 141 kts 232°
2026-04-25 10:43 54.80733 48.74195 7284 ft 142 kts 230°
2026-04-25 10:44 54.80004 48.73034 7183 ft 142 kts 229°
2026-04-25 10:44 54.79267 48.71893 7079 ft 142 kts 228°
2026-04-25 10:44 54.78538 48.70776 6978 ft 141 kts 228°
2026-04-25 10:44 54.77800 48.69646 6874 ft 142 kts 228°
2026-04-25 10:45 54.77091 48.68575 6765 ft 129 kts 228°
2026-04-25 10:45 54.76631 48.67870 6709 ft 136 kts 228°
2026-04-25 10:45 54.75921 48.66788 6611 ft 140 kts 228°
2026-04-25 10:45 54.74934 48.65299 6488 ft 143 kts 227°
2026-04-25 10:46 54.74181 48.64155 6400 ft 144 kts 229°
2026-04-25 10:46 54.73671 48.63393 6352 ft 143 kts 231°
2026-04-25 10:46 54.72939 48.62257 6265 ft 143 kts 230°
2026-04-25 10:46 54.72180 48.61102 6095 ft 146 kts 230°
2026-04-25 10:47 54.71420 48.59950 5853 ft 145 kts 230°
2026-04-25 10:47 54.70662 48.58805 5613 ft 144 kts 230°
2026-04-25 10:47 54.69915 48.57674 5383 ft 144 kts 231°
2026-04-25 10:47 54.69159 48.56513 5144 ft 145 kts 230°
2026-04-25 10:48 54.68394 48.55367 4902 ft 145 kts 230°
2026-04-25 10:48 54.67635 48.54223 4718 ft 143 kts 230°
2026-04-25 10:48 54.66898 48.53115 4623 ft 139 kts 231°
2026-04-25 10:48 54.66180 48.52027 4531 ft 136 kts 231°
2026-04-25 10:49 54.65470 48.50956 4441 ft 134 kts 231°
2026-04-25 10:49 54.64780 48.49913 4356 ft 133 kts 231°
2026-04-25 10:49 54.64082 48.48856 4264 ft 134 kts 230°
2026-04-25 10:49 54.63380 48.47795 4178 ft 134 kts 231°
2026-04-25 10:50 54.62673 48.46729 4084 ft 134 kts 231°
2026-04-25 10:50 54.61970 48.45667 3996 ft 134 kts 231°
2026-04-25 10:50 54.61290 48.44602 3853 ft 134 kts 231°
2026-04-25 10:50 54.60557 48.43594 3734 ft 133 kts 228°
2026-04-25 10:51 54.59858 48.42590 3582 ft 130 kts 232°
2026-04-25 10:51 54.59195 48.41551 3479 ft 127 kts 232°
2026-04-25 10:51 54.58546 48.40551 3456 ft 123 kts 231°
2026-04-25 10:51 54.57897 48.39595 3424 ft 123 kts 230°
2026-04-25 10:52 54.57236 48.38637 3261 ft 124 kts 229°
2026-04-25 10:52 54.56600 48.37740 3075 ft 113 kts 229°
2026-04-25 10:52 54.56001 48.36936 2910 ft 108 kts 230°
2026-04-25 10:52 54.55420 48.36153 2741 ft 104 kts 231°
2026-04-25 10:53 54.54850 48.35390 2557 ft 102 kts 230°
2026-04-25 10:53 54.54292 48.34640 2374 ft 102 kts 230°
2026-04-25 10:53 54.53666 48.33765 2295 ft 123 kts 230°
2026-04-25 10:53 54.53000 48.32816 2294 ft 128 kts 230°
2026-04-25 10:54 54.52310 48.31829 2291 ft 129 kts 230°
2026-04-25 10:54 54.51854 48.31175 2293 ft 128 kts 230°
2026-04-25 10:54 54.50946 48.29844 2297 ft 128 kts 230°
2026-04-25 10:54 54.50277 48.28869 2292 ft 128 kts 230°
2026-04-25 10:55 54.49565 48.27926 2241 ft 139 kts 211°
2026-04-25 10:55 54.48505 48.28070 2051 ft 165 kts 163°
2026-04-25 10:55 54.47572 48.29091 2250 ft 155 kts 152°
2026-04-25 10:55 54.46692 48.30130 2290 ft 157 kts 149°
2026-04-25 10:56 54.46075 48.31714 2282 ft 164 kts 107°
2026-04-25 10:56 54.45776 48.33585 2282 ft 162 kts 123°
2026-04-25 10:56 54.45116 48.35147 2287 ft 161 kts 131°
2026-04-25 10:56 54.44446 48.36699 2288 ft 162 kts 130°
2026-04-25 10:57 54.43780 48.38250 2289 ft 161 kts 130°
2026-04-25 10:57 54.42962 48.39388 2287 ft 150 kts 171°
2026-04-25 10:57 54.42006 48.39198 2288 ft 135 kts 213°
2026-04-25 10:57 54.41163 48.38498 2290 ft 134 kts 215°
2026-04-25 10:58 54.40325 48.37812 2292 ft 132 kts 216°
2026-04-25 10:58 54.39549 48.37097 2291 ft 120 kts 226°
2026-04-25 10:58 54.38965 48.36219 2289 ft 101 kts 234°
2026-04-25 10:58 54.38481 48.35450 2243 ft 89 kts 236°
2026-04-25 10:59 54.38048 48.34737 2167 ft 85 kts 236°
2026-04-25 10:59 54.37546 48.34104 2006 ft 95 kts 222°
2026-04-25 10:59 54.37012 48.33549 2004 ft 86 kts 225°
2026-04-25 10:59 54.36526 48.33014 2001 ft 80 kts 228°
2026-04-25 11:00 54.36066 48.32484 1997 ft 80 kts 225°
2026-04-25 11:00 54.35598 48.31958 1995 ft 80 kts 227°
2026-04-25 11:00 54.35141 48.31434 1985 ft 79 kts 223°
2026-04-25 11:00 54.34617 48.31072 1993 ft 79 kts 221°
2026-04-25 11:01 54.34162 48.30589 1935 ft 74 kts 237°
2026-04-25 11:01 54.33783 48.30004 1857 ft 72 kts 238°
2026-04-25 11:01 54.33384 48.29466 1784 ft 78 kts 227°
2026-04-25 11:01 54.32928 48.28959 1734 ft 79 kts 225°
2026-04-25 11:02 54.32450 48.28485 1644 ft 76 kts 226°
2026-04-25 11:02 54.31980 48.27950 1351 ft 86 kts 226°
2026-04-25 11:02 54.31503 48.27442 1175 ft 75 kts 225°
2026-04-25 11:02 54.31071 48.26929 1047 ft 88 kts 224°
2026-04-25 11:03 54.30568 48.26417 947 ft 76 kts 223°
2026-04-25 11:03 54.30136 48.25924 875 ft 80 kts 225°
2026-04-25 11:03 54.29650 48.25416 791 ft 81 kts 222°
2026-04-25 11:03 54.29164 48.24882 681 ft 88 kts 219°
2026-04-25 11:04 54.28658 48.24330 529 ft 84 kts 218°
2026-04-25 11:04 54.28198 48.23831 421 ft 75 kts 223°
2026-04-25 11:04 54.27788 48.23383 404 ft 63 kts 223°
2026-04-25 11:04 54.27558 48.23132 419 ft 54 kts 221°
2026-04-25 11:05 54.27189 48.22739 416 ft 42 kts 217°
2026-04-25 11:05 54.27036 48.22769 423 ft 0 kts 158°
2026-04-25 11:05 54.27018 48.22780 424 ft 7 kts 162°
2026-04-25 11:05 54.26952 48.22814 425 ft 13 kts 167°
2026-04-25 11:06 54.26962 48.22930 425 ft 19 kts 30°
2026-04-25 11:06 54.27021 48.23058 423 ft 7 kts 119°
2026-04-25 11:06 54.26980 48.23163 422 ft 15 kts 122°
2026-04-25 11:06 54.26954 48.23239 422 ft 1 kts 120°
2026-04-25 11:07 54.26943 48.23269 422 ft 7 kts 115°
2026-04-25 11:07 54.26983 48.23362 421 ft 16 kts 36°
2026-04-25 11:07 54.27017 48.23371 417 ft 7 kts 299°
2026-04-25 11:07 54.27019 48.23367 418 ft 0 kts 296°
2026-04-25 11:08 54.27019 48.23368 418 ft 0 kts 296°